星链-34116 (STARLINK-34116)

导读

STARLINK-34116是美国于2025年5月10日发射的星链系列卫星,隶属于SpaceX公司打造的星链星座系统。该卫星主要用于为全球提供低延迟、高速率的宽带互联网服务,覆盖偏远地区与网络基础设施薄弱区域,推进全球互联覆盖,是星链大规模组网进程中的组成单元,服务民用及商用通信场景。

Basic Information
目录编号:
63890
目录名称:
STARLINK-34116
国际标识:
2025-095A
轨道中心:
EARTH
卫星名称:
星链-34116
卫星全名:
星链-34116 (STARLINK-34116)
卫星状态:
在轨 (已飞行482 天)
发射日期:
2025-05-10 UTC
国别 :
美国 (US)
星等 :
--
Orbit Information
数据来源 国际轨道数据
星历时间: 2026-09-03T15:54:56+0800
19小时前
查看轨道信息
半长轴: 6861.191km
偏心率: 0.0000923
轨道倾角: 42.999°
近地点辐角 273.192°
升交点赤经 253.167°
平近点角 86.883°
近地点: 482.42km
远地点: 483.688km
周期: 94.267分钟
每日圈数: 15.275784
Detailed Information
固有亮度:
5
最大亮度:
2.5
卫星平台:
Starlink V1.0
覆盖范围:
全球
运营商:
太空探索技术公司
运营商所在国:
美国
制造商(研发单位):
太空探索技术公司
制造商所在国:
美国
使用方式:
暂无
Satellite Introduction
Starlink 计划是 SpaceX 推出的全球卫星互联网项目,通过发射低轨道卫星,为全球尤其是偏远地区提供高速、低延迟的互联网服务。自 2019 年起,Starlink 已部署数千颗卫星,旨在缩小全球数字鸿沟,推动互联网普及。该项目还为军事、航空等行业提供通信支持,带来广泛经济效益。
2D Orbit Map
3D Orbit Map
Orbit Altitude Analysis Chart
Orbit Inclination Analysis Chart
Orbit Comprehensive Analysis Chart
View Comprehensive Chart
Conjunction Data List
Event ID Objects TCA Miss Dist (km) Collision Risk Probability Collision Risk Index (CRI) Action
CDM_260829-030306-389006-731621
2026-08-29T
03:03:47+0000
0.792 km
远距离
4.493736E-5 中风险 0.68
CDM_260829-105505-546106-389021
2026-08-29T
10:55:09+0000
0.851 km
远距离
3.5836E-5 中风险 0.66
CDM_260904-035701-340306-389026
SL-3 R/B (13403)
2026-09-04T
03:57:35+0000
0.856 km
远距离
3.583476E-5 中风险 0.66
CDM_260829-030306-359306-389021
2026-08-29T
03:03:12+0000
0.983 km
远距离
2.171478E-5 中风险 0.62
CDM_260829-061005-952706-389021
2026-08-29T
06:10:58+0000
1.101 km
极远距离
1.456277E-5 中风险 0.58
CDM_260904-024205-304706-389021
2026-09-04T
02:42:04+0000
1.389 km
极远距离
8.473398E-6 低风险 0.54
CDM_260829-193105-952706-389021
2026-08-29T
19:31:16+0000
1.403 km
极远距离
6.326022E-6 低风险 0.51
CDM_260829-170806-389006-719021
2026-08-29T
17:08:49+0000
1.429 km
极远距离
5.85545E-6 低风险 0.5
CDM_260829-043605-952706-389021
2026-08-29T
04:36:49+0000
1.642 km
极远距离
3.826207E-6 低风险 0.47
CDM_260829-184206-389006-719021
2026-08-29T
18:42:58+0000
1.742 km
极远距离
3.161835E-6 低风险 0.45